Simultaneous Nadir Overpasses (SNOs) Predictions

Prediction of SNOs between FY3D and AQUA Satellite Orbit:

Table of predicted SNOs for the next 14.0 days since TLE Epoch: 9/21/2019
Index Date (FY3D) Time (FY3D) Lat,Lon (FY3D) SZA (FY3D ) Date (AQUA) Time (AQUA) Lat,Lon (AQUA) SZA (AQUA ) Distance(km) Time Diff (sec)
1 09/21/2019 18:02:52 62.16, 128.32 110.24 09/21/2019 18:04:05 62.14, 128.59 110.07 13.90 73
2 09/21/2019 18:51:11 -70.17, -55.52 77.65 09/21/2019 18:51:11 -70.18, -55.48 77.66 1.27 0
3 09/21/2019 19:39:22 77.59, 131.28 94.11 09/21/2019 19:38:09 77.70, 130.49 94.28 22.92 73
4 09/24/2019 10:21:56 53.23,-121.46 119.49 09/24/2019 10:23:09 53.14,-120.90 119.21 38.48 73
5 09/24/2019 11:07:32 -70.46, 60.82 77.00 09/24/2019 11:07:36 -70.45, 60.79 76.99 0.93 4
6 09/24/2019 11:57:37 72.45,-128.33 100.95 09/24/2019 11:56:24 72.46,-128.25 101.01 2.66 73
7 09/27/2019 03:24:09 -69.90, 175.84 75.49 09/27/2019 03:24:16 -69.91, 175.88 75.51 1.48 7
8 09/27/2019 04:13:57 72.77, -11.79 101.57 09/27/2019 04:12:48 72.76, -11.80 101.64 0.29 69
9 09/29/2019 19:40:27 -70.34, -67.59 74.99 09/29/2019 19:40:38 -70.33, -67.63 74.99 1.64 11
10 09/29/2019 20:30:30 72.42, 103.40 102.89 09/29/2019 20:29:24 72.43, 103.45 102.94 1.72 66
11 10/02/2019 11:56:59 -69.99, 47.76 73.69 10/02/2019 11:57:13 -69.99, 47.75 73.71 0.19 14




NCC Satellite Simultaneous Nadir Overpasses (SNOs) Prediction Service
